Regional Weather Roundup
Issued by NWS

Home | Current Version | Previous Version | Text Only | Print | Product List | Glossary On
Versions: 1 2 3 4 5 6 7 8 9 10 11 12 13 14 15 16 17 18 19 20 21 22 23 24 25 26 27 28 29 30 31 32 33 34 35 36 37 38 39 40 41 42 43 44 45 46 47 48 49 50
000
ASCA44 KEWX 250520
RWRMX

LATIN AMERICA AND CARIBBEAN REGIONAL WEATHER ROUNDUP
NATIONAL WEATHER SERVICE AUSTIN/SAN ANTONIO TX
1200 AM CDT TUE APR 25 2017

NOTE: "FAIR" INDICATED FEW OR NO CLOUDS BELOW 12,000 FEET WITH NO
SIGNIFICANT WEATHER AND/OR OBSTRUCTIONS TO VISIBILITY.

BAJA CALIFORNIA

CITY           SKY/WX    TMP DP  RH WIND       PRES   REMARKS
LA PAZ         CLEAR     70  48  46 S14       29.91R
MEXICALI       PTCLDY    73  37  27 NW13      29.68R
S.J. DEL CABO  CLEAR     72  55  56 CALM      29.86R
TIJUANA        MOCLDY    59  50  72 CALM      29.95S

NORTHWESTERN MEXICO

CITY           SKY/WX    TMP DP  RH WIND       PRES   REMARKS
CULIACAN       CLEAR     75  68  78 CALM      29.88R
HERMOSILLO     PTCLDY    75  43  31 CALM      29.81S
LOS MOCHIS       N/A    N/A N/A N/A MISG        N/A

NORTHEASTERN MEXICO

CITY           SKY/WX    TMP DP  RH WIND       PRES   REMARKS
MONCLOVA         N/A    N/A N/A N/A MISG        N/A
MONTERREY      CLEAR     70  59  68 E6        29.75F
REYNOSA          N/A    N/A N/A N/A MISG        N/A
CD. VICTORIA     N/A    N/A N/A N/A MISG        N/A

WESTERN MEXICO

CITY           SKY/WX    TMP DP  RH WIND       PRES   REMARKS
AGUASCALIENTES PTCLDY    66  36  32 S6        30.16
COLIMA           N/A    N/A N/A N/A MISG        N/A
DEL BAJIO        N/A    N/A N/A N/A MISG        N/A
GUADALAJARA      N/A    N/A N/A N/A MISG        N/A
MAZATLAN       PTCLDY    73  72  94 CALM      29.90R
P. VALLARTA      N/A    N/A N/A N/A MISG        N/A
URUAPAN          N/A    N/A N/A N/A MISG        N/A
ZACATECAS        N/A    N/A N/A N/A MISG        N/A

CENTRAL MEXICO

CITY           SKY/WX    TMP DP  RH WIND       PRES   REMARKS
CUERNAVACA       N/A    N/A N/A N/A MISG        N/A
MEXICO CITY    PTCLDY    64  46  52 S3        30.26R
MORELIA        MOCLDY    61  45  55 SW3       30.17R
POZA RICA        N/A    N/A N/A N/A MISG        N/A
QUERETARO      MOCLDY    66  45  45 W7        30.20R
S. LUIS POTOSI MOCLDY    66  45  45 E7        30.10S
TAMPICO          N/A    N/A N/A N/A MISG        N/A
TOLUCA         CLEAR     54  43  66 NW7       30.34R

SOUTHERN MEXICO

CITY           SKY/WX    TMP DP  RH WIND       PRES   REMARKS
ACAPULCO       PTCLDY    79  73  83 CALM      29.87R
B. DE HUATULCO   N/A    N/A N/A N/A MISG        N/A
P. ESCONDIDO     N/A    N/A N/A N/A MISG        N/A
VERACRUZ       PTCLDY    75  70  83 NW3       29.85R

YUCATAN PENINSULA

CITY           SKY/WX    TMP DP  RH WIND       PRES   REMARKS
CAMPECHE         N/A    N/A N/A N/A MISG        N/A
CANCUN         MOCLDY    73  72  94 CALM      29.91S
CHETUMAL         N/A    N/A N/A N/A MISG        N/A
CD. DEL CARMEN   N/A    N/A N/A N/A MISG        N/A
COZUMEL          N/A    N/A N/A N/A MISG        N/A
MERIDA         CLEAR     75  70  83 E5        29.89S
MINATITLAN       N/A    N/A N/A N/A MISG        N/A
TAPACHULA      CLEAR     79  73  83 CALM      29.86R
TUX. GUTIERREZ CLEAR     75  61  60 W5        29.93
VILLAHERMOSA   CLEAR     73  68  83 E6        29.88F

CENTRAL AMERICA

CITY           SKY/WX    TMP DP  RH WIND       PRES   REMARKS
BELIZE CITY      N/A     77  75  94 S3        29.88S
MANAGUA        PTCLDY    84  72  65 E9        29.83S

CARIBBEAN

CITY           SKY/WX    TMP DP  RH WIND       PRES   REMARKS
ARUBA          PTCLDY    82  77  83 E10       29.80F HX  91
CURACAO        PTCLDY    81  75  83 E12       29.83F
KINGSTON       PTCLDY    82  75  78 N3        29.86S
NASSAU         PTCLDY    73  72  94 S3        29.82F
SAN JUAN       PTCLDY    81  75  83 CALM      29.92F
SANTO DOMINGO  MOCLDY    77  75  94 S5        29.89S
ST. CROIX      CLOUDY    81  79  94 E14       29.95
ST. MAARTEN    MOCLDY    79  75  89 E13       29.94S
ST. THOMAS     MOCLDY    79  75  89 E12       29.94F

$$




USA.gov is the U.S. government's official web portal to all federal, state and local government web resources and services.